User: anonymous   Login
Location: Bukit Nyuki
(2.5885°N, 113.7476°E)
Time: 21:20:50
(UTC+00:00)
Language:

Cosmos 1741 Rocket - Orbit

View from above orbital plane
View from above orbital plane
View from above satellite
View from above satellite

Ground track
Ground track

The orbit data is extracted from the following two-line orbital elements,

1 16682U 86030B   21204.53748172  .00000079  00000-0  36310-4 0  9999
2 16682  74.0272 356.3153 0015288 327.1117  97.0398 14.35955438845784
Epoch (UTC): 23 July 2021 12:53:58
Eccentricity: 0.0015288
inclination: 74.0272°
perigee height: 761 km
apogee height: 783 km
right ascension of ascending node: 356.3153°
argument of perigee: 327.1117°
revolutions per day: 14.35955438
mean anomaly at epoch: 97.0398°
orbit number at epoch: 84578

The dashed part of the orbit path shows where the satellite is in the earth's shadow,  

DLR